Location: Unspecified
(0.0000°N, 0.0000°E)
Time: 15:16:35
(UTC+00:00)

Explorer 7 - All Passes

Search period start: 29 September 2016 00:00
Search period end: 09 October 2016 00:00
Orbit: 486 x 686 km, 50.3° (Epoch: 29 September)

Date Brightness Start Highest point End Pass type
(mag) Time Alt. Az. Time Alt. Az. Time Alt. Az.
29 Sep - 10:19:11 10° NW 10:23:06 81° SW 10:27:19 10° SE daylight
29 Sep - 20:44:48 10° SSE 20:46:22 11° SE 20:47:55 10° ESE night (unlit)
29 Sep - 22:22:23 10° SW 22:27:02 54° NW 22:31:25 10° NNE night (unlit)
30 Sep - 08:47:27 10° NNE 08:48:57 12° NE 08:50:30 10° ENE daylight
30 Sep - 10:25:43 10° WNW 10:29:18 33° SW 10:33:07 10° SSE daylight
30 Sep - 20:48:50 10° S 20:52:39 23° SE 20:56:20 10° ENE night (unlit)
30 Sep - 22:29:15 10° WSW 22:33:10 26° NW 22:36:56 10° N night (unlit)
01 Oct - 08:51:51 10° N 08:55:06 26° NE 08:58:31 10° ESE daylight
01 Oct - 10:33:07 10° W 10:35:33 16° SW 10:38:06 10° SSW daylight
01 Oct - 20:54:13 10° SSW 20:58:53 47° SE 21:03:19 10° NE night (unlit)
01 Oct - 22:37:17 10° W 22:39:19 13° NW 22:41:20 10° NNW night (unlit)
02 Oct - 08:57:26 10° NNW 09:01:14 63° NE 09:05:16 10° SE daylight
02 Oct - 21:00:11 10° SW 21:05:03 82° NW 21:09:40 10° NE night (unlit)
03 Oct - 09:03:39 10° NW 09:07:24 51° SW 09:11:22 10° SSE daylight
03 Oct - 19:27:31 10° SSE 19:30:36 17° SE 19:33:37 10° E visible
03 Oct - 21:06:41 10° WSW 21:11:11 38° NW 21:15:29 10° NNE night (unlit)
04 Oct - 07:30:43 10° NNE 07:33:14 17° NE 07:35:49 10° E daylight
04 Oct - 09:10:32 10° WNW 09:13:37 22° SW 09:16:49 10° S daylight
04 Oct - 19:32:26 10° S 19:36:50 32° SE 19:41:04 10° ENE visible
04 Oct - 21:13:55 10° W 21:17:19 19° NW 21:20:38 10° N night (unlit)
05 Oct - 07:35:51 10° NNW 07:39:22 38° NE 07:43:03 10° ESE daylight
05 Oct - 09:19:30 10° SW 09:19:52 10° SW 09:20:14 10° SW daylight
05 Oct - 19:38:07 10° SSW 19:43:01 68° SE 19:47:42 10° NE visible
06 Oct - 07:41:44 10° NW 07:45:31 84° SW 07:49:28 10° SE daylight
06 Oct - 18:06:49 10° SSE 18:08:30 12° SE 18:10:10 10° ESE visible
06 Oct - 19:44:20 10° SW 19:49:10 58° NW 19:53:48 10° NNE visible
07 Oct - 06:10:27 10° NE 06:11:20 11° NE 06:12:14 10° ENE daylight
07 Oct - 07:48:14 10° WNW 07:51:41 33° SW 07:55:16 10° SSE daylight
07 Oct - 18:10:51 10° S 18:14:45 23° SE 18:18:34 10° ENE visible
07 Oct - 19:51:07 10° WSW 19:55:17 28° NW 19:59:21 10° N visible
08 Oct - 06:14:24 10° N 06:17:29 24° NE 06:20:39 10° ESE daylight
08 Oct - 07:55:39 10° W 07:57:53 15° SW 08:00:11 10° SSW daylight
08 Oct - 18:16:12 10° SSW 18:20:56 46° SE 18:25:33 10° NE visible
08 Oct - 19:58:52 10° W 20:01:27 14° NW 20:03:59 10° NNW visible
